Weather Roundup
Issued by NWS

Home | Current Version | Previous Version | Text Only | Print | Product List | Glossary On
Versions: 1 2 3 4 5 6 7 8 9 10 11 12 13 14 15 16 17 18 19 20 21 22 23 24 25 26 27 28 29 30 31 32 33 34 35 36 37 38 39 40 41 42 43 44 45 46 47 48 49 50
000
NZUS93 KARX 171759
HRRWXR

CURRENT HOURLY OBSERVATIONS ACROSS
MUCH OF THE UPPER MISSISSIPPI VALLEY
NATIONAL WEATHER SERVICE LA CROSSE WI
1200 PM CST WED DEC 17 2014


...SOUTHEAST MINNESOTA...


CITY           SKY/WX    TMP DP  RH WIND       PRES   REMARKS
ROCHESTER      LGT SNOW  16  11  80 NW13      30.26F WCI   2
ROCHESTER/MAYO CLOUDY    16   9  74 W13       30.28F WCI   3
WINONA         PTSUNNY   21  14  73 N6        30.30F WCI  14
AUSTIN         FAIR      18  12  79 NW12G18   30.27F WCI   5
ALBERT LEA     FAIR      18  12  79 N7        30.28F WCI   8
DODGE CENTER   LGT SNOW  16  12  86 NW10      30.26F WCI   3
PRESTON        LGT SNOW  17  12  80 NW10      30.26F WCI   5
OWATONNA       FAIR      18  10  73 W8        30.29F WCI   7
FARIBAULT      FLURRIES  18  12  79 W8        30.30F WCI   7
$$

...ELSEWHERE IN MINNESOTA...


CITY           SKY/WX    TMP DP  RH WIND       PRES   REMARKS
MINNEAPOLIS    FAIR      17   9  70 NW8       30.32F WCI   7
INTNL FALLS    FAIR      16   6  65 N9        30.31F WCI   4
DULUTH         FAIR      16   8  71 N9        30.22S WCI   4
RED WING       LGT SNOW  18  10  73 NW7       30.30F WCI   8
REDWOOD FALLS  FAIR      15   8  73 VRB6      30.32F WCI   6
MANKATO        FAIR      16   9  73 W9        30.32S WCI   4
WORTHINGTON    FAIR      16  10  79 N6        30.30F WCI   7
FAIRMONT       FAIR      16   9  73 NW7       30.31F WCI   6
$$

...SOUTHWEST WISCONSIN...


CITY           SKY/WX    TMP DP  RH WIND       PRES   REMARKS
LA CROSSE      FAIR      23  12  62 N10       30.28F WCI  12
PRAIRIE DU CHI FLURRIES  21  11  66 W9        30.29F WCI  11
BOSCOBEL       CLOUDY    22  14  71 W6        30.28F WCI  14
LONE ROCK      NOT AVBL
PLATTEVILLE    CLOUDY    21  16  82 NW10      30.26S WCI  10
FORT MC COY    FLURRIES  22  13  69 W7        30.26F WCI  13
VIROQUA        CLOUDY    19  14  82 NW9       30.23F WCI   8
WIS DELLS      NOT AVBL
$$

...ELSEWHERE IN WISCONSIN...


CITY           SKY/WX    TMP DP  RH WIND       PRES   REMARKS
MILWAUKEE      CLOUDY    26  14  60 W13G22    30.19F WCI  15
MADISON        FLURRIES  24  15  68 NW9       30.21F WCI  14
GREEN BAY      CLOUDY    25  16  68 NW13      30.16F WCI  14
EAU CLAIRE     NOT AVBL
BLACK RVR FLS  FLURRIES  21  13  72 W8        30.26S WCI  11
MEDFORD        FAIR      15   8  72 W8        30.18F WCI   4
WAUSAU         FAIR      20  10  65 W10       30.17S WCI   9
WIS RAPIDS     CLOUDY    21  12  68 NW8       30.21F WCI  11
MARSHFIELD     LGT SNOW  20  13  74 N9        30.20S WCI   9
RICE LAKE      PTSUNNY   17   9  71 NW6       30.27F WCI   8
$$

...NORTHEAST IOWA...


CITY           SKY/WX    TMP DP  RH WIND       PRES   REMARKS
DECORAH        CLOUDY    18  12  79 VRB6G13   30.26F WCI   9
MASON CITY     FAIR      18  11  74 NW12      30.31F WCI   5
CHARLES CITY   PTSUNNY   19  12  73 NW10      30.30F WCI   8
OELWEIN        PTSUNNY   19  12  73 N10       30.30S WCI   8
$$

...ELSEWHERE IN IOWA...


CITY           SKY/WX    TMP DP  RH WIND       PRES   REMARKS
DES MOINES     PTSUNNY   24  13  62 NW8       30.32F WCI  15
IOWA CITY      FAIR      24  14  65 NW9       30.32F WCI  14
FORT DODGE     FAIR      19  12  73 N6        30.31F WCI  11
$$

...NORTHERN ILLINOIS...


CITY           SKY/WX    TMP DP  RH WIND       PRES   REMARKS
CHICAGO-OHARE  CLOUDY    26  17  68 W10       30.22F WCI  16
CHICAGO-MIDWAY CLOUDY    28  18  66 W12       30.23F WCI  18
MOLINE         PTSUNNY   26  17  68 W12       30.29F WCI  16
ROCKFORD       FLURRIES  25  16  68 W13G18    30.26F WCI  14
PEORIA         CLOUDY    25  16  68 NW6       30.30F WCI  18
$$

NOTE: "FAIR" INDICATES FEW OR NO CLOUDS BELOW 12,000 FEET WITH NO
SIGNIFICANT WEATHER AND/OR OBSTRUCTIONS TO VISIBILITY. WIND
SPEEDS ARE IN MILES-PER-HOUR.



USA.gov is the U.S. government's official web portal to all federal, state and local government web resources and services.